This is the latest recevied weather packets stored in our database for station/object YB3RDW-13. If no packets are shown the sender has not sent any weather packets the latest 10 day(s).
| Time | Temp. | Humidity | Pressure | Rain* | Wind** | Luminosity | Snow |
|---|---|---|---|---|---|---|---|
| 1778119317 | 31.67° C | 72% | 1012 hPa | 0 mm | - | 475 W/m² | - |
| 1778119017 | 30.56° C | 75% | 1013 hPa | 0 mm | - | 444 W/m² | - |
| 1778118717 | 30° C | 77% | 1013 hPa | 0 mm | - | 432 W/m² | - |
| 1778118418 | 30° C | 77% | 1013 hPa | 0 mm | - | 401 W/m² | - |
| 1778118119 | 30.56° C | 77% | 1013 hPa | 0 mm | - | 407 W/m² | - |
| 1778117818 | 30° C | 77% | 1013 hPa | 0 mm | - | 406 W/m² | - |
| 1778117518 | 30° C | 78% | 1013 hPa | 0 mm | - | 391 W/m² | - |
| 1778117218 | 30° C | 79% | 1013 hPa | 0 mm | - | 378 W/m² | - |
| 1778116917 | 29.44° C | 80% | 1013 hPa | 0 mm | - | 355 W/m² | - |
| 1778116617 | 28.89° C | 82% | 1013 hPa | 0 mm | - | 368 W/m² | - |
| 1778116317 | 28.89° C | 82% | 1013 hPa | 0 mm | - | 358 W/m² | - |
| 1778116017 | 28.89° C | 82% | 1013 hPa | 0 mm | - | 333 W/m² | - |
| 1778115717 | 28.89° C | 82% | 1013 hPa | 0 mm | - | 315 W/m² | - |
| 1778115417 | 28.33° C | 82% | 1013 hPa | 0 mm | - | 305 W/m² | - |
| 1778115117 | 28.33° C | 83% | 1013 hPa | 0 mm | - | 286 W/m² | - |
| 1778114818 | 27.78° C | 85% | 1013 hPa | 0 mm | - | 267 W/m² | - |
| 1778114518 | 27.78° C | 85% | 1013 hPa | 0 mm | - | 254 W/m² | - |
| 1778114217 | 27.78° C | 86% | 1013 hPa | 0 mm | - | 235 W/m² | - |
| 1778113918 | 27.22° C | 86% | 1013 hPa | 0 mm | - | 226 W/m² | - |
| 1778113617 | 27.22° C | 87% | 1013 hPa | 0 mm | - | 212 W/m² | - |
| 1778113318 | 27.22° C | 88% | 1013 hPa | 0 mm | - | 196 W/m² | - |
| 1778113017 | 26.67° C | 88% | 1013 hPa | 0 mm | - | 181 W/m² | - |
| 1778112718 | 26.67° C | 89% | 1013 hPa | 0 mm | - | 172 W/m² | - |
| 1778112418 | 26.67° C | 89% | 1013 hPa | 0 mm | - | 157 W/m² | - |
| 1778112117 | 26.67° C | 88% | 1012 hPa | 0 mm | - | 144 W/m² | - |
* Rain latest hour (hover to see other rain measurements)
** Current wind speed in m/s (hover to see current wind gust speed)